Flag for Saudi Arabia Weather past 2 weeks in Qatif, Saudi Arabia

Now
70 °F

Sunny.


Feels Like: 70 °F
Forecast: 54 / 69 °F
Wind: 17 mph from Northwest

Location: King Fahd International Airport

Current Time: Dec 18, 2014 at 1:56:41 PM

Latest Report: Dec 18, 2014 at 1:00 PM


Visibility: 10 mi

Pressure: 30.18 "Hg

Humidity: 38%

Dew point: 43 °F

Location of QatifLocation

Historic Weather in Qatif — Graph

°F

Qatif temperature yesterday

Maximum temperature yesterday: 75 °F (at 12:00 PM)
Minimum temperature yesterday: 61 °F (at 2:00 AM)
Average temperature yesterday: 67 °F

Past Weeks' High & Low Weather Summary

 TemperatureHumidityPressure
High81 °F (Dec 11, 1:00 PM)94% (Dec 10, 3:00 AM)30.27 "Hg (Dec 10, 3:00 AM)
Low54 °F (Dec 13, 6:00 AM)21% (Dec 12, 3:00 PM)30.04 "Hg (Dec 11, 2:00 PM)
Average66 °F65%30.12 "Hg
* Reported Dec 3 12:00 Noon — Dec 18 12:00 Noon, Qatif, Weather by CustomWeather, © 2014

Note: Actual official high and low records may vary slightly from our data, if they occured in-between our weather recording intervals... More about our weather records

Advertising

Qatif weather history for previous 24 hours

 ConditionsComfort  
Time TempWeatherWind HumidityBarometerVisibility
12:00 PM
Dec 18
68 °FSunny.17 mph43%30.21 "Hg10 mi
11:00 AM66 °FSunny.17 mph49%30.24 "Hg5 mi
10:00 AM63 °FSunny.15 mph59%30.24 "Hg5 mi
9:00 AM59 °FSunny.15 mph68%30.27 "Hg5 mi
8:00 AM55 °FSunny.15 mph72%30.24 "Hg10 mi
7:00 AM54 °FSunny.15 mph72%30.24 "Hg10 mi
6:00 AM54 °FClear.13 mph72%30.21 "Hg10 mi
5:00 AM55 °FClear.14 mph67%30.21 "Hg10 mi
4:00 AM57 °FClear.14 mph63%30.18 "Hg10 mi
3:00 AM57 °FClear.14 mph63%30.18 "Hg10 mi
2:00 AM59 °FClear.15 mph72%30.18 "Hg10 mi
1:00 AM59 °FClear.12 mph77%30.21 "Hg10 mi
12:00 AM61 °FClear.12 mph72%30.21 "Hg10 mi
11:00 PM
Dec 17
61 °FClear.12 mph72%30.21 "Hg10 mi
10:00 PM63 °FClear.13 mph73%30.21 "Hg10 mi
9:00 PM63 °FClear.12 mph77%30.21 "Hg10 mi
8:00 PM64 °FClear.14 mph73%30.21 "Hg10 mi
7:00 PM66 °FClear.14 mph73%30.18 "Hg10 mi
6:00 PM68 °FClear.13 mph69%30.18 "Hg10 mi
5:00 PM70 °FPassing clouds.10 mph60%30.15 "HgN/A
4:00 PM72 °FScattered clouds.15 mph53%30.15 "HgN/A
3:00 PM73 °FScattered clouds.15 mph50%30.12 "HgN/A
2:00 PM73 °FScattered clouds.15 mph47%30.12 "HgN/A
1:00 PM73 °FBroken clouds.15 mph57%30.15 "HgN/A
Weather by CustomWeather, © 2014

See weather overviewHow to use our weather pages